www.pogodaiklimat.ru

Погода и климат >> Архив погоды >> Россия >> Тульская область >> Тула


АРХИВ ПОГОДЫ в Туле

Время (UTC), дата Ветер
(напр.,м/с)
 
Видим.   Явления Облачность Т
(С)
Тd
(С)
f
(%)
Тe
(С)
Тes
(С)
Комфортность P
(гПа)
Po
(гПа)
Тmin
(С)
Tmax
(С)
R
(мм)
R24
(мм)
S
(см)
21 10.11 В 2 10 км слабый ливневой дождь 10/10 600 м
[Cb calv]
+1.9 +0.8 92 -2 -2 по сезону 1033.1 1007.2
00 11.11 В 3 10 км в посл. час ливневой дождь 10/10 600 м
[Cb calv]
+0.3 -0.7 93 -4 -4 по сезону 1035.6 1009.5
03 11.11 В 3
{10}
10 км 10/10 600 м
[Sc]
-1.9 -3.0 92 -7 -7 прохладно 1038.6 1012.2 -1.9 0.7
06 11.11 В 2 10 км {ливн. осадки} 10/10 600 м
[Cb calv]
-2.8 -5.5 82 -7 -7 прохладно 1041.1 1014.5 -2.8 0.0
09 11.11 В 3 10 км 10/10 600 м
[Cb calv]
-3.4 -6.8 77 -9 -9 холодно 1042.8 1016.4
12 11.11 В 3 10 км 4/4 600 м
[Sc]
-1.4 -7.1 65 -6 -6 прохладно 1043.3 1017.1
15 11.11 В 2 10 км ясно -4.3 -9.3 68 -8 -8 холодно 1045.6 1018.7
18 11.11 В 4 10 км ясно -5.5 -11.0 65 -12 -12 очень
холодно
1046.1 1019.4 +2.0
21 11.11 В 3 10 км ясно -6.7 -10.1 77 -12 -12 очень
холодно
1046.9 1020.1
00 12.11 В 3 10 км ясно -7.5 -10.5 79 -13 -13 очень
холодно
1046.9 1020.0
03 12.11 ЮВ 2 10 км ясно -8.4 -10.9 82 -13 -13 очень
холодно
1047.0 1020.0 -8.4
06 12.11 ЮВ 2 10 км ясно -8.4 -11.0 81 -13 -13 очень
холодно
1048.1 1020.8 -8.8
09 12.11 ЮВ 3 10 км ясно -4.1 -11.0 59 -9 -8 холодно 1047.5 1020.6
12 12.11 ЮВ 3 10 км ясно -2.4 -9.8 57 -7 -6 прохладно 1046.6 1019.9
15 12.11 ЮВ 2 10 км ясно -4.7 -9.7 68 -9 -9 холодно 1046.7 1019.8
18 12.11 ЮВ 4 10 км ясно -6.2 -10.6 71 -13 -13 очень
холодно
1047.1 1020.0 -2.2
21 12.11 ЮВ 2 10 км ясно -7.2 -11.3 72 -11 -11 холодно 1046.9 1019.7
00 13.11 Ю 2 10 км ясно -7.8 -12.2 71 -12 -12 холодно 1046.5 1019.3
03 13.11 ЮВ 1 10 км ясно -9.3 -12.6 77 -12 -12 холодно 1046.1 1018.8 -9.3
06 13.11 ЮВ 1 10 км 3/0
[Ci fib]
-9.5 -13.0 76 -12 -12 холодно 1046.1 1018.7 -9.9
09 13.11 ЮВ 3 10 км 4/0
[Ci fib]
-4.4 -12.6 53 -9 -8 холодно 1044.4 1017.5
12 13.11 Ю 4 10 км 6/0
[Ci fib]
-2.1 -16.0 34 -7 -7 прохладно 1041.7 1015.2
15 13.11 ЮВ 2 10 км 4/0
[Ci fib]
-4.5 -14.1 47 -8 -8 прохладно 1041.1 1014.3
18 13.11 Ю 4 10 км 4/0
[Ci fib]
-5.3 -13.8 51 -11 -11 холодно 1039.3 1012.5 -1.9
21 13.11 Ю 4 10 км 6/0
[Ci fib]
-5.4 -13.7 52 -11 -11 холодно 1037.9 1011.1
00 14.11 Ю 4 10 км 8/0
[Ac trans Ci fib]
-5.3 -13.5 52 -11 -11 холодно 1035.9 1009.2
03 14.11 Ю 3 10 км 8/0
[Ci fib]
-5.7 -13.2 55 -11 -11 холодно 1034.0 1007.3 -5.7
06 14.11 ЮВ 2 10 км 10/8 600 м
[Cb calv Ac trans]
-4.5 -8.9 71 -8 -8 прохладно 1032.3 1005.8 -5.9
09 14.11 Ю 3 10 км {ливн. осадки} 8/4 600 м
[Cb calv Ac trans]
-2.6 -6.8 73 -8 -7 прохладно 1031.1 1004.8
12 14.11 ЮВ 3 10 км {ливн. осадки} 10/8 1000 м
[Sc Ac trans]
-1.1 -4.9 75 -6 -6 прохладно 1030.3 1004.2
15 14.11 ЮВ 3 10 км 10/8 1000 м
[Sc Ac trans]
-1.1 -5.9 70 -6 -6 по сезону 1029.8 1003.7 0.0
18 14.11 ЮВ 3 10 км 10/10 1000 м
[Sc]
-0.8 -5.4 71 -5 -5 по сезону 1030.0 1003.9 -0.6 0.0
21 14.11 ЮВ 3 10 км 8/6 1000 м
[Sc Ac trans]
-0.8 -11.3 45 -5 -5 по сезону 1030.8 1004.7
00 15.11 ЮВ 2 10 км 8/6 1000 м
[Sc Ac trans]
-0.7 -10.4 48 -4 -4 по сезону 1031.7 1005.5
03 15.11 ЮВ 2 10 км 6/0
[Ac trans]
-1.4 -9.7 53 -5 -5 по сезону 1033.0 1006.7 -1.4
06 15.11 ЮВ 2 10 км 6/0
[Ac trans]
-4.4 -11.9 56 -8 -8 прохладно 1035.4 1009.1 -4.5
09 15.11 ЮВ 2 10 км 3/0
[Ac trans]
-0.8 -11.3 45 -4 -2 по сезону 1036.5 1010.5
12 15.11 ЮВ 2 10 км 3/0
[Ac trans]
+1.5 -12.0 36 -1 -0 по сезону 1037.3 1011.5
15 15.11 В 1 10 км 3/0
[Ac trans]
-1.3 -11.7 45 -3 -3 по сезону 1039.3 1013.2
18 15.11 В 2 10 км ясно -2.9 -12.4 48 -6 -6 по сезону 1040.8 1014.2 +1.7
21 15.11 штиль 0 10 км ясно -6.6 -11.9 66 -7 -7 по сезону 1042.5 1015.8
00 16.11 СВ 1 10 км ясно -8.1 -12.3 72 -10 -10 прохладно 1043.7 1016.8
03 16.11 СВ 1 10 км ясно -10.0 -12.7 81 -12 -12 холодно 1044.9 1017.8 -10.0
06 16.11 СВ 1 10 км 3/0
[Ac trans]
-10.0 -12.7 81 -12 -12 холодно 1046.7 1019.2 -11.2
09 16.11 СВ 2 10 км 3/0
[Ac trans]
-2.3 -10.6 53 -6 -4 по сезону 1046.8 1020.1
12 16.11 Ю 1 10 км ясно +1.2 -11.3 39 0 +1 по сезону 1045.9 1019.6
15 16.11 штиль 0 10 км ясно -5.2 -11.2 63 -6 -6 по сезону 1046.5 1019.5
18 16.11 СВ 1 10 км 3/0
[Ac trans]
-8.1 -11.4 77 -10 -10 холодно 1046.9 1019.6 +1.6
21 16.11 штиль 0 10 км 4/4 1000 м
[Sc]
-10.2 -12.0 87 -11 -11 холодно 1046.3 1018.8
00 17.11 ЮЗ 1 10 км 4/4 1000 м
[Sc]
-11.3 -12.8 89 -14 -14 очень
холодно
1045.5 1017.9
03 17.11 ЮЗ 1 10 км ясно -12.4 -14.0 88 -15 -15 очень
холодно
1044.4 1016.7 -12.4
06 17.11 ЮЗ 1 10 км 4/0
[Ci fib]
-10.6 -12.4 87 -13 -13 холодно 1043.1 1015.7 -12.4
09 17.11 З 3 10 км 8/0
[Ac trans Ci fib]
-1.5 -9.2 56 -6 -5 по сезону 1040.0 1013.6
12 17.11 ЮЗ 3 10 км 9/0
[Ac trans Ci fib]
+3.2 -15.6 24 0 +1 по сезону 1036.4 1010.5
15 17.11 ЮЗ 3 10 км 9/0
[Ac trans Ci fib]
+0.1 -14.6 32 -3 -3 по сезону 1034.3 1008.1
18 17.11 ЮЗ 3 10 км 9/0
[Ac trans Ci fib]
-0.6 -15.2 32 -4 -4 по сезону 1031.1 1005.0 +3.9

 

Местоположение метеостанции Тула (Тульская область, Россия): широта 54.23 долгота 37.62 высота над уровнем моря 205 м.

В архиве по умолчанию представлена погода в Туле за последнюю неделю. Архивные данные за месяц целиком и за предыдущие месяцы, начиная с января 2011 года, Вы можете получить, выбрав интересующий диапазон дат из раскрывающегося списка и нажав кнопку "Ввод!".


*Определитесь, кто Вы:
робот инопланетянин человек

Внимание! Время в таблицах - всемирное. Для получения местного времени необходимо прибавить поправку, которая в Туле равна 3 ч.

Смотрите также архив погоды в соседних городах и на ближайших метеорологических станциях:

Погода в Узловой (Тульская область, Россия) (42 км)
Погода в Алексине (Тульская область, Россия) (46 км)
Погода в Плавске (Тульская область, Россия) (69 км)
Погода в Суворове (Тульская область, Россия) (72 км)
Погода в Кашире (Московская область, Россия) (75 км)
Погода в Серебряных Прудах (Московская область, Россия) (76 км)
Погода в Волово (Тульская область, Россия) (78 км)
Погода в Серпухове (Московская область, Россия) (78 км)
Погода в Калуге (Калужская область, Россия) (79 км)
Погода в Михайлове (Рязанская область, Россия) (92 км)

Пояснения к столбцам:

Ветер - указаны скорость ветра в м/с - средняя за 10 мин, порывы в срок и между сроками (в фигурных скобках) и направление, откуда дует ветер: С - северный, СВ - северо-восточный, В - восточный, ЮВ - юго-восточный, Ю - южный, ЮЗ - юго-западный, З - западный, СЗ - северо-западный.
Видимость - горизонтальная дальность видимости в метрах или километрах. При видимости от 1 до 10 км при отсутствии осадков обычно наблюдается дымка, при ухудшении видимости до 1 км и менее - туман. В сухую погоду видимость может ухудшаться дымом, пылью или мглою.
Явления - указаны атмосферные явления, наблюдавшиеся в срок или в последний час перед сроком; фигурными скобками обозначены явления, наблюдавшиеся между сроками (за 1-3 часа до срока); квадратными скобками обозначены град или гололедные отложения с указанием их диаметра в мм.
Облачность - указаны через наклонную черту общая и нижняя облачность в баллах и высота нижней границы облаков в метрах; квадратными скобками обозначены формы облаков: Ci - перистые, Cs - перисто-слоистые, Cc - перисто-кучевые, Ac - высококучевые, As - высокослоистые, Sc - слоисто-кучевые, Ns - слоисто-дождевые, Cu - кучевые, Cb - кучево-дождевые. Подробнее классификацию облаков см. в Атласе облаков (PDF).
T - Температура воздуха - температура, измеренная на высоте 2 м над землей.
Td - Температура точки росы - температура, при понижении до которой содержащийся в воздухе водяной пар достигнет насыщения.
f - Относительная влажность воздуха - влажноcть воздуха, измеренная на высоте 2 м над землей.
Te - Эффективная температура - температура, которую ощущает одетый по сезону человек в тени. Характеристика душности погоды. При расчете учитывается влияние влажности воздуха и скорости ветра на теплоощущения человека.
Tes - Эффективная температура на солнце - температура, которую ощущает человек, с поправкой на солнечный нагрев. Характеристика знойности погоды. Зависит от высоты солнца над горизонтом, облачности и скорости ветра. Ночью, в пасмурную погоду, а также при ветре 12 м/с и более поправка равна нулю.
P - Атмосферное давление - приведенное к уровню моря атмосферное давление.
Po - Атмосферное давление - измеренное на уровне метеостанции атмосферное давление.
Tmin - Минимальная температура - минимум температуры воздуха на высоте 2 м над землей.
Tmax - Максимальная температура - максимум температуры воздуха на высоте 2 м над землей.
R - Количество осадков - Количество выпавших осадков за период времени, мм. При наведении курсора мыши на число - период времени, за который выпало указанное количество осадков.
R24 - Количество осадков - Количество выпавших осадков за 24 часа, мм.
S - Снежный покров - Высота снежного покрова, см. При наведении курсора мыши на число - состояние снежного покрова и степень покрытия местности в баллах.